Big Rapids, MI

2:09 AM EDT on October 20, 2017 (GMT -0400)
Roben-Hood

Weather History for KRQB - February, 2014

Change the Weather History Date:

Tuesday, February 25, 2014

  Actual Average Record
Temperature  
Mean Temperature 12 °F -  
Max Temperature 18 °F 32 °F 56 °F (1976)
Min Temperature 7 °F 12 °F -16 °F (1993)
Degree Days  
Heating Degree Days 52    
Moisture  
Dew Point 6 °F    
Average Humidity 75    
Maximum Humidity 87    
Minimum Humidity 56    
Precipitation  
Precipitation 0.00 in - - ()
Sea Level Pressure  
Sea Level Pressure 30.03 in    
Wind  
Wind Speed 6 mph (West)    
Max Wind Speed 18 mph    
Max Gust Speed 28 mph    
Visibility 7 miles    
Events Snow    
Averages and records for this station are not official NWS values.
T = Trace of Precipitation, MM = Missing Value Source: NWS Daily Summary

Daily Weather History Graph

Daily Weather History Graph

Search for Another Location

Airport or City:

Trip Planner

Search our weather history database for the weather conditions in past years. The results will help you decide how hot, cold, wet, or windy it might be!

Date:

Astronomy

Feb. 25, 2014 Rise Set
Actual Time 7:25 AM EST 6:25 PM EST
Civil Twilight 6:56 AM EST 6:54 PM EST
Nautical Twilight 6:23 AM EST 7:27 PM EST
Astronomical Twilight 5:49 AM EST 8:01 PM EST
Moon 4:24 AM EST (2/25) 2:25 PM EST (2/25)
Length of Visible Light 11h 58m
Length of Day
11h 00m
Waning Crescent, 18% of the Moon is Illuminated
Feb 25
Waning Crescent
Mar 1
New
Mar 8
First Quarter
Mar 16
Full
Mar 23
Last Quarter

Hourly Weather History & Observations

Time (EST) Temp. Windchill Dew Point Humidity Pressure Visibility Wind Dir Wind Speed Gust Speed Precip Events Conditions
12:15 AM 10.4 °F - 5.7 °F 81% 30.10 in 10.0 mi Calm Calm - N/A   Clear
12:35 AM 8.6 °F 2.0 °F 4.3 °F 83% 30.10 in 10.0 mi WSW 3.5 mph - N/A   Scattered Clouds
12:55 AM 10.2 °F 0.6 °F 5.5 °F 81% 30.10 in 10.0 mi West 5.8 mph - N/A   Mostly Cloudy
1:15 AM 10.6 °F 2.5 °F 5.9 °F 81% 30.10 in 10.0 mi West 4.6 mph - N/A   Mostly Cloudy
1:35 AM 10.4 °F 4.0 °F 5.9 °F 82% 30.10 in 10.0 mi West 3.5 mph - N/A   Mostly Cloudy
1:55 AM 10.2 °F - 5.2 °F 80% 30.09 in 10.0 mi Calm Calm - N/A   Overcast
2:15 AM 8.1 °F - 4.1 °F 84% 30.09 in 10.0 mi Calm Calm - N/A   Overcast
2:35 AM 8.2 °F - 4.5 °F 85% 30.09 in 10.0 mi Calm Calm - N/A   Overcast
2:55 AM 8.4 °F - 4.8 °F 85% 30.09 in 10.0 mi Calm Calm - N/A   Overcast
3:15 AM 9.7 °F 3.2 °F 6.4 °F 87% 30.09 in 10.0 mi West 3.5 mph - N/A   Overcast
3:35 AM 12.2 °F 4.3 °F 6.8 °F 79% 30.09 in 10.0 mi West 4.6 mph - N/A   Overcast
3:55 AM 12.7 °F 5.0 °F 6.8 °F 77% 30.09 in 10.0 mi West 4.6 mph - N/A   Overcast
4:15 AM 13.1 °F 7.1 °F 7.0 °F 77% 30.08 in 10.0 mi West 3.5 mph - N/A   Overcast
4:35 AM 12.6 °F - 7.2 °F 79% 30.08 in 10.0 mi Calm Calm - N/A   Overcast
4:55 AM 12.9 °F - 7.3 °F 78% 30.08 in 10.0 mi Calm Calm - N/A   Overcast
5:15 AM 12.0 °F 5.9 °F 7.5 °F 82% 30.08 in 10.0 mi West 3.5 mph - N/A   Overcast
5:35 AM 13.1 °F 7.1 °F 7.5 °F 78% 30.08 in 10.0 mi WSW 3.5 mph - N/A Snow Light Snow
5:55 AM 11.1 °F - 7.0 °F 83% 30.08 in 10.0 mi Calm Calm - N/A   Overcast
6:15 AM 11.3 °F - 7.5 °F 85% 30.08 in 7.0 mi Calm Calm - N/A Snow Light Snow
6:35 AM 11.1 °F - 7.2 °F 84% 30.07 in 5.0 mi Calm Calm - N/A Snow Light Snow
6:55 AM 11.7 °F - 7.7 °F 84% 30.07 in 5.0 mi Calm Calm - N/A Snow Light Snow
7:15 AM 13.1 °F 7.1 °F 8.1 °F 80% 30.07 in 10.0 mi West 3.5 mph - N/A Snow Light Snow
7:35 AM 13.1 °F 4.0 °F 8.2 °F 81% 30.07 in 5.0 mi West 5.8 mph - N/A Snow Light Snow
7:55 AM 13.1 °F 5.4 °F 8.2 °F 81% 30.07 in 5.0 mi West 4.6 mph - N/A Snow Light Snow
8:15 AM 13.1 °F 7.1 °F 8.6 °F 82% 30.07 in 4.0 mi WSW 3.5 mph - N/A Snow Light Snow
8:35 AM 13.6 °F 6.0 °F 9.0 °F 82% 30.07 in 3.0 mi WSW 4.6 mph - N/A Snow Light Snow
8:55 AM 14.0 °F 8.2 °F 9.5 °F 82% 30.07 in 1.8 mi WSW 3.5 mph - N/A Snow Light Snow
9:15 AM 14.5 °F 5.7 °F 10.0 °F 82% 30.06 in 1.8 mi WSW 5.8 mph - N/A Snow Light Snow
9:35 AM 15.6 °F 4.9 °F 10.8 °F 81% 30.06 in 3.0 mi West 8.1 mph - N/A Snow Light Snow
9:55 AM 17.1 °F 3.6 °F 10.6 °F 76% 30.06 in 7.0 mi West 12.7 mph - N/A Snow Light Snow
10:15 AM 17.4 °F 3.5 °F 9.0 °F 69% 30.05 in 7.0 mi West 13.8 mph 19.6 mph N/A Snow Light Snow
10:35 AM 17.6 °F 4.3 °F 9.5 °F 71% 30.05 in 5.0 mi West 12.7 mph 16.1 mph N/A Snow Light Snow
10:55 AM 18.1 °F 7.1 °F 10.0 °F 71% 30.05 in 5.0 mi West 9.2 mph - N/A Snow Light Snow
11:15 AM 18.5 °F 4.9 °F 10.9 °F 72% 30.04 in 4.0 mi West 13.8 mph 18.4 mph N/A Snow Light Snow
11:35 AM 18.3 °F 4.1 °F 9.1 °F 67% 30.04 in 5.0 mi West 15.0 mph 23.0 mph N/A Snow Light Snow
11:54 AM 18.1 °F 3.9 °F 9.9 °F 70% 30.04 in 3.0 mi West 15.0 mph 20.7 mph N/A Snow Light Snow
12:15 PM 18.0 °F 3.6 °F 9.1 °F 68% 30.04 in 5.0 mi West 15.0 mph 20.7 mph N/A Snow Light Snow
12:35 PM 17.6 °F 2.2 °F 8.2 °F 67% 30.03 in 5.0 mi West 17.3 mph 24.2 mph N/A   Haze
12:55 PM 17.6 °F 3.7 °F 8.1 °F 66% 30.02 in 5.0 mi West 13.8 mph 23.0 mph N/A   Haze
1:15 PM 17.1 °F 4.3 °F 8.2 °F 68% 30.01 in 5.0 mi West 11.5 mph 17.3 mph N/A Snow Light Snow
1:35 PM 16.7 °F 2.6 °F 7.0 °F 66% 30.01 in 7.0 mi West 13.8 mph 21.9 mph N/A   Overcast
1:55 PM 16.3 °F 3.4 °F 7.9 °F 69% 30.00 in 5.0 mi WNW 11.5 mph 21.9 mph N/A   Haze
2:15 PM 16.0 °F 1.1 °F 7.5 °F 69% 30.00 in 3.0 mi West 15.0 mph 19.6 mph N/A Snow Light Snow
2:35 PM 15.6 °F 4.0 °F 5.9 °F 66% 30.00 in 4.0 mi West 9.2 mph 19.6 mph N/A Snow Light Snow
2:55 PM 16.9 °F 0.8 °F 4.5 °F 58% 29.99 in 7.0 mi West 18.4 mph 25.3 mph N/A   Overcast
3:15 PM 14.9 °F -0.3 °F 3.0 °F 59% 29.99 in 10.0 mi West 15.0 mph - N/A   Mostly Cloudy
3:35 PM 15.4 °F -0.1 °F 2.3 °F 56% 29.99 in 7.0 mi West 16.1 mph 24.2 mph N/A   Mostly Cloudy
3:55 PM 14.9 °F 0.9 °F 3.9 °F 62% 29.99 in 10.0 mi WNW 12.7 mph 18.4 mph N/A   Overcast
4:15 PM 14.4 °F -2.5 °F 3.4 °F 62% 29.99 in 4.0 mi West 18.4 mph 25.3 mph N/A   Haze
4:35 PM 14.0 °F -0.2 °F 3.7 °F 64% 29.99 in 3.0 mi West 12.7 mph 25.3 mph N/A Snow Light Snow
4:55 PM 13.6 °F -2.4 °F 3.7 °F 65% 29.98 in 2.5 mi West 16.1 mph 27.6 mph N/A Snow Light Snow
5:15 PM 13.1 °F -2.0 °F 5.0 °F 70% 29.98 in 3.0 mi West 13.8 mph 19.6 mph N/A Snow Light Snow
5:35 PM 12.9 °F 2.6 °F 6.3 °F 75% 29.97 in 4.0 mi WNW 6.9 mph 17.3 mph N/A Snow Light Snow
5:55 PM 13.1 °F 4.0 °F 5.7 °F 72% 29.97 in 4.0 mi West 5.8 mph - N/A Snow Light Snow
6:15 PM 12.6 °F -2.0 °F 3.0 °F 66% 29.97 in 5.0 mi West 12.7 mph 24.2 mph N/A   Haze
6:35 PM 11.8 °F -1.5 °F 4.3 °F 72% 29.97 in 3.0 mi WNW 10.4 mph 20.7 mph N/A Snow Light Snow
6:55 PM 11.3 °F -0.4 °F 4.6 °F 75% 29.98 in 4.0 mi WNW 8.1 mph - N/A Snow Light Snow
7:15 PM 11.3 °F -2.2 °F 2.8 °F 69% 29.98 in 10.0 mi WNW 10.4 mph 16.1 mph N/A   Overcast
7:35 PM 11.1 °F -3.9 °F 1.4 °F 65% 29.98 in 10.0 mi WNW 12.7 mph 17.3 mph N/A   Overcast
7:55 PM 10.4 °F 0.8 °F 3.0 °F 72% 29.99 in 7.0 mi WNW 5.8 mph 16.1 mph N/A   Overcast
8:15 PM 10.4 °F 2.2 °F 4.1 °F 76% 29.99 in 5.0 mi WNW 4.6 mph - N/A Snow Light Snow
8:35 PM 10.0 °F -1.9 °F 4.6 °F 79% 29.99 in 4.0 mi West 8.1 mph - N/A Snow Light Snow
8:55 PM 9.3 °F 1.0 °F 3.9 °F 79% 29.99 in 10.0 mi WNW 4.6 mph - N/A   Scattered Clouds
9:14 PM 9.0 °F -2.2 °F 3.7 °F 79% 29.99 in 10.0 mi West 6.9 mph - N/A   Mostly Cloudy
9:35 PM 8.6 °F -1.3 °F 3.2 °F 79% 29.99 in 10.0 mi West 5.8 mph - N/A   Scattered Clouds
9:55 PM 8.2 °F -1.8 °F 2.8 °F 79% 29.99 in 7.0 mi West 5.8 mph - N/A Snow Light Snow
10:15 PM 8.2 °F -1.8 °F 2.5 °F 77% 29.99 in 10.0 mi West 5.8 mph - N/A   Mostly Cloudy
10:35 PM 7.7 °F -5.8 °F 2.3 °F 79% 29.99 in 7.0 mi West 9.2 mph - N/A   Mostly Cloudy
10:55 PM 7.7 °F -6.6 °F 2.3 °F 79% 29.99 in 7.0 mi West 10.4 mph - N/A   Mostly Cloudy
11:15 PM 7.3 °F -6.2 °F 1.8 °F 78% 29.99 in 10.0 mi West 9.2 mph - N/A Snow Light Snow
11:35 PM 7.3 °F -6.2 °F 2.1 °F 79% 29.99 in 5.0 mi West 9.2 mph - N/A Snow Light Snow
11:55 PM 7.2 °F -6.4 °F 2.1 °F 80% 29.99 in 4.0 mi West 9.2 mph - N/A Snow Light Snow